Hermosillo, México

8:17 AM MST en Agosto 16, 2017 (GMT -0700)
Gen Ignacio Pesqueira Garcia

Tiempo Historia de MMHO - Abril, 2017

Change the Weather History Date:

Viernes, Abril 21, 2017

  Actual Average Record
Temperature  
Temperatura media 84 ° F -  
Temperatura máxima 104 ° F 93 ° F 104 ° F (2012)
Temperatura mínima 65 ° F 63 ° F 51 ° F (2007)
Cooling Degree Days 20    
Growing Degree Days 34 (Base 50)    
Moisture  
Punto de rocío 34 ° F    
Average Humidity 20    
Maximum Humidity 42    
Minimum Humidity 4    
Precipitación  
Precipitación 0.00 pul - - ()
Presión al nivel del mar  
Presión al nivel del mar 29.80 pul    
Viento  
Velocidad del viento 3 mph ()    
Velocidad máxima del viento 14 mph    
Max Gust Speed -    
Visibilidad 9.6 Millas    
Eventos      
Averages and records for this station are not official NWS values.
T = Trace of Precipitation, MM = Missing Value Source: Averaged Metar Reports

Daily Weather History Graph

Daily Weather History Graph

Search for Another Location

Airport or City:

Trip Planner

Search our weather history database for the weather conditions in past years. The results will help you decide how hot, cold, wet, or windy it might be!

Date:

Astronomía

Apr. 21, 2017 Salida Puesta
Hora real 6:51 AM MDT 7:54 PM MDT
Crepúsculo civil 6:27 AM MDT 8:18 PM MDT
Crepúsculo náutico 5:58 AM MDT 8:48 PM MDT
Crepúsculo astronómico 5:28 AM MDT 9:18 PM MDT
Luna 3:41 AM MDT (4/21) 3:09 PM MDT (4/21)
Horas de luz 13h 51m
Horas de luz
13h 02m
Creciente menguante, 27% of the Moon is Illuminated
Abr 21
Creciente menguante
Abr 26
Nueva
May 2
Cuarto creciente
May 10
Luna llena
May 18
Cuarto menguante

Hourly Weather History & Observations

Hora (MDT) Temp. Punto de rocío Humedad Presión Visibilidad Wind Dir Velocidad del viento Velocidad de ráfagas Precip Eventos Condiciones
12:27 AM 75.2 ° F 42.8 ° F 31% 29.81 pul 10.0 mi Sin viento Sin viento - N/A   Despejado
12:40 AM 73.4 ° F 42.8 ° F 33% 29.86 pul 10.0 mi Sin viento Sin viento - N/A   Despejado
1:40 AM 71.6 ° F 41.0 ° F 33% 29.86 pul 10.0 mi Sin viento Sin viento - N/A   Despejado
2:45 AM 71.6 ° F 41.0 ° F 33% 29.78 pul 10.0 mi SSE 4.6 mph - N/A   Despejado
3:43 AM 69.8 ° F 41.0 ° F 35% 29.83 pul 10.0 mi Sin viento Sin viento - N/A   Despejado
4:59 AM 68.0 ° F 41.0 ° F 37% 29.82 pul 10.0 mi Sin viento Sin viento - N/A   Despejado
5:42 AM 64.4 ° F 41.0 ° F 42% 29.77 pul 10.0 mi Sin viento Sin viento - N/A   Despejado
6:41 AM 64.4 ° F 41.0 ° F 42% 29.82 pul 10.0 mi Sin viento Sin viento - N/A   Despejado
7:41 AM 64.4 ° F 41.0 ° F 42% 29.85 pul 10.0 mi Sin viento Sin viento - N/A   Despejado
8:40 AM 75.2 ° F 41.0 ° F 29% 29.82 pul 10.0 mi Sin viento Sin viento - N/A   Despejado
9:42 AM 82.4 ° F 39.2 ° F 21% 29.86 pul 10.0 mi Sin viento Sin viento - N/A   Despejado
10:53 AM 91.4 ° F 35.6 ° F 14% 29.87 pul 10.0 mi Sin viento Sin viento - N/A   Despejado
11:40 AM 92 ° F 48 ° F 14% 29.83 pul 7 mi OSO 2.2 mph - -  
11:44 AM 95.0 ° F 33.8 ° F 12% 29.81 pul 10.0 mi SSE 5.8 mph - N/A   Despejado
12:44 PM 96.8 ° F 28.4 ° F 9% 29.84 pul 10.0 mi Oeste 5.8 mph - N/A   Despejado
1:40 PM 98.6 ° F 21.2 ° F 6% 29.81 pul 10.0 mi SSO 8.1 mph - N/A   Despejado
2:48 PM 102.2 ° F 21.2 ° F 6% 29.74 pul 10.0 mi SO 5.8 mph - N/A   Despejado
3:45 PM 100.4 ° F 19.4 ° F 5% 29.78 pul 10.0 mi Oeste 11.5 mph - N/A   Despejado
4:45 PM 102.2 ° F 15.8 ° F 4% 29.76 pul 10.0 mi SO 11.5 mph - N/A   Despejado
5:40 PM 103 ° F 31 ° F 4% 29.71 pul 7 mi OSO 8.9 mph - -  
5:43 PM 102.2 ° F 14.0 ° F 4% 29.72 pul 10.0 mi OSO 10.4 mph - N/A   Despejado
6:54 PM 98.6 ° F 30.2 ° F 9% 29.77 pul 10.0 mi OSO 13.8 mph - N/A   Despejado
7:56 PM 93.2 ° F 32.0 ° F 11% 29.78 pul 10.0 mi OSO 11.5 mph - N/A   Despejado
8:40 PM 90 ° F 39 ° F 9% 29.75 pul 5 mi Oeste 8.9 mph - -  
8:41 PM 87.8 ° F 30.2 ° F 13% 29.76 pul 10.0 mi Oeste 8.1 mph - N/A   Despejado
9:40 PM 80.6 ° F 30.2 ° F 16% 29.83 pul 10.0 mi NO 5.8 mph - N/A   Despejado
10:40 PM 75.2 ° F 33.8 ° F 22% 29.84 pul 10.0 mi ONO 4.6 mph - N/A   Despejado
11:40 PM 77.0 ° F 32.0 ° F 19% 29.81 pul 10.0 mi Sin viento Sin viento - N/A   Despejado